Year,Month,Day,Hour,Minute,Value (Times are PST for temperature in C)
2018,08,23,00,00,15.80
2018,08,23,00,01,15.80
2018,08,23,00,02,15.80
2018,08,23,00,03,15.80
2018,08,23,00,04,15.80
2018,08,23,00,05,15.80
2018,08,23,00,06,15.80
2018,08,23,00,07,15.70
2018,08,23,00,08,15.70
2018,08,23,00,09,15.70
2018,08,23,00,10,15.70
2018,08,23,00,11,15.60
2018,08,23,00,12,15.60
2018,08,23,00,13,15.60
2018,08,23,00,14,15.60
2018,08,23,00,15,15.60
2018,08,23,00,16,15.60
2018,08,23,00,17,15.50
2018,08,23,00,18,15.50
2018,08,23,00,19,15.50
2018,08,23,00,20,15.40
2018,08,23,00,21,15.40
2018,08,23,00,22,15.40
2018,08,23,00,23,15.40
2018,08,23,00,24,15.30
2018,08,23,00,25,15.30
2018,08,23,00,26,15.30
2018,08,23,00,27,15.30
2018,08,23,00,28,15.30
2018,08,23,00,29,15.30
2018,08,23,00,30,15.30
2018,08,23,00,31,15.30
2018,08,23,00,32,15.30
2018,08,23,00,33,15.30
2018,08,23,00,34,15.30
2018,08,23,00,35,15.30
2018,08,23,00,36,15.30
2018,08,23,00,37,15.30
2018,08,23,00,38,15.30
2018,08,23,00,39,15.30
2018,08,23,00,40,15.30
2018,08,23,00,41,15.30
2018,08,23,00,42,15.30
2018,08,23,00,43,15.30
2018,08,23,00,44,15.30
2018,08,23,00,45,15.30
2018,08,23,00,46,15.40
2018,08,23,00,47,15.40
2018,08,23,00,48,15.40
2018,08,23,00,49,15.40
2018,08,23,00,50,15.40
2018,08,23,00,51,15.40
2018,08,23,00,52,15.40
2018,08,23,00,53,15.40
2018,08,23,00,54,15.40
2018,08,23,00,55,15.40
2018,08,23,00,56,15.40
2018,08,23,00,57,15.40
2018,08,23,00,58,15.40
2018,08,23,00,59,15.40
2018,08,23,01,00,15.40
2018,08,23,01,01,15.40
2018,08,23,01,02,15.40
2018,08,23,01,03,15.40
2018,08,23,01,04,15.40
2018,08,23,01,05,15.40
2018,08,23,01,06,15.40
2018,08,23,01,07,15.40
2018,08,23,01,08,15.40
2018,08,23,01,09,15.40
2018,08,23,01,10,15.40
2018,08,23,01,11,15.40
2018,08,23,01,12,15.40
2018,08,23,01,13,15.30
2018,08,23,01,14,15.30
2018,08,23,01,15,15.30
2018,08,23,01,16,15.30
2018,08,23,01,17,15.30
2018,08,23,01,18,15.30
2018,08,23,01,19,15.30
2018,08,23,01,20,15.30
2018,08,23,01,21,15.30
2018,08,23,01,22,15.30
2018,08,23,01,23,15.30
2018,08,23,01,24,15.30
2018,08,23,01,25,15.30
2018,08,23,01,26,15.30
2018,08,23,01,27,15.30
2018,08,23,01,28,15.30
2018,08,23,01,29,15.30
2018,08,23,01,30,15.20
2018,08,23,01,31,15.20
2018,08,23,01,32,15.20
2018,08,23,01,33,15.20
2018,08,23,01,34,15.20
2018,08,23,01,35,15.20
2018,08,23,01,36,15.20
2018,08,23,01,37,15.20
2018,08,23,01,38,15.20
2018,08,23,01,39,15.20
2018,08,23,01,40,15.20
2018,08,23,01,41,15.20
2018,08,23,01,42,15.20
2018,08,23,01,43,15.20
2018,08,23,01,44,15.20
2018,08,23,01,45,15.20
2018,08,23,01,46,15.20
2018,08,23,01,47,15.20
2018,08,23,01,48,15.20
2018,08,23,01,49,15.20
2018,08,23,01,50,15.20
2018,08,23,01,51,15.20
2018,08,23,01,52,15.20
2018,08,23,01,53,15.20
2018,08,23,01,54,15.20
2018,08,23,01,55,15.20
2018,08,23,01,56,15.20
2018,08,23,01,57,15.20
2018,08,23,01,58,15.20
2018,08,23,01,59,15.20
2018,08,23,02,00,15.20
2018,08,23,02,01,15.20
2018,08,23,02,02,15.20
2018,08,23,02,03,15.20
2018,08,23,02,04,15.20
2018,08,23,02,05,15.20
2018,08,23,02,06,15.20
2018,08,23,02,07,15.20
2018,08,23,02,08,15.20
2018,08,23,02,09,15.20
2018,08,23,02,10,15.20
2018,08,23,02,11,15.20
2018,08,23,02,12,15.20
2018,08,23,02,13,15.20
2018,08,23,02,14,15.20
2018,08,23,02,15,15.20
2018,08,23,02,16,15.10
2018,08,23,02,17,15.10
2018,08,23,02,18,15.10
2018,08,23,02,19,15.10
2018,08,23,02,20,15.10
2018,08,23,02,21,15.10
2018,08,23,02,22,15.10
2018,08,23,02,23,15.10
2018,08,23,02,24,15.00
2018,08,23,02,25,15.00
2018,08,23,02,26,15.00
2018,08,23,02,27,15.00
2018,08,23,02,28,15.00
2018,08,23,02,29,14.90
2018,08,23,02,30,14.90
2018,08,23,02,31,14.90
2018,08,23,02,32,14.90
2018,08,23,02,33,14.90
2018,08,23,02,34,14.90
2018,08,23,02,35,14.80
2018,08,23,02,36,14.80
2018,08,23,02,37,14.80
2018,08,23,02,38,14.80
2018,08,23,02,39,14.80
2018,08,23,02,40,14.80
2018,08,23,02,41,14.80
2018,08,23,02,42,14.80
2018,08,23,02,43,14.80
2018,08,23,02,44,14.80
2018,08,23,02,45,14.80
2018,08,23,02,46,14.80
2018,08,23,02,47,14.80
2018,08,23,02,48,14.80
2018,08,23,02,49,14.80
2018,08,23,02,50,14.80
2018,08,23,02,51,14.80
2018,08,23,02,52,14.80
2018,08,23,02,53,14.80
2018,08,23,02,54,14.80
2018,08,23,02,55,14.80
2018,08,23,02,56,14.80
2018,08,23,02,57,14.80
2018,08,23,02,58,14.80
2018,08,23,02,59,14.80
2018,08,23,03,00,14.80
2018,08,23,03,01,14.80
2018,08,23,03,02,14.80
2018,08,23,03,03,14.80
2018,08,23,03,04,14.80
2018,08,23,03,05,14.70
2018,08,23,03,06,14.70
2018,08,23,03,07,14.70
2018,08,23,03,08,14.70
2018,08,23,03,09,14.70
2018,08,23,03,10,14.70
2018,08,23,03,11,14.70
2018,08,23,03,12,14.70
2018,08,23,03,13,14.70
2018,08,23,03,14,14.70
2018,08,23,03,15,14.70
2018,08,23,03,16,14.70
2018,08,23,03,17,14.70
2018,08,23,03,18,14.60
2018,08,23,03,19,14.60
2018,08,23,03,20,14.70
2018,08,23,03,21,14.70
2018,08,23,03,22,14.70
2018,08,23,03,23,14.70
2018,08,23,03,24,14.70
2018,08,23,03,25,14.70
2018,08,23,03,26,14.70
2018,08,23,03,27,14.70
2018,08,23,03,28,14.70
2018,08,23,03,29,14.70
2018,08,23,03,30,14.70
2018,08,23,03,31,14.70
2018,08,23,03,32,14.70
2018,08,23,03,33,14.70
2018,08,23,03,34,14.70
2018,08,23,03,35,14.70
2018,08,23,03,36,14.70
2018,08,23,03,37,14.70
2018,08,23,03,38,14.70
2018,08,23,03,39,14.70
2018,08,23,03,40,14.80
2018,08,23,03,41,14.80
2018,08,23,03,42,14.80
2018,08,23,03,43,14.80
2018,08,23,03,44,14.80
2018,08,23,03,45,14.80
2018,08,23,03,46,14.80
2018,08,23,03,47,14.80
2018,08,23,03,48,14.80
2018,08,23,03,49,14.80
2018,08,23,03,50,14.80
2018,08,23,03,51,14.80
2018,08,23,03,52,14.80
2018,08,23,03,53,14.70
2018,08,23,03,54,14.70
2018,08,23,03,55,14.70
2018,08,23,03,56,14.70
2018,08,23,03,57,14.80
2018,08,23,03,58,14.80
2018,08,23,03,59,14.80
2018,08,23,04,00,14.80
2018,08,23,04,01,14.80
2018,08,23,04,02,14.80
2018,08,23,04,03,14.80
2018,08,23,04,04,14.80
2018,08,23,04,05,14.80
2018,08,23,04,06,14.80
2018,08,23,04,07,14.80
2018,08,23,04,08,14.80
2018,08,23,04,09,14.80
2018,08,23,04,10,14.80
2018,08,23,04,11,14.80
2018,08,23,04,12,14.80
2018,08,23,04,13,14.80
2018,08,23,04,14,14.80
2018,08,23,04,15,14.80
2018,08,23,04,16,14.80
2018,08,23,04,17,14.80
2018,08,23,04,18,14.80
2018,08,23,04,19,14.80
2018,08,23,04,20,14.80
2018,08,23,04,21,14.80
2018,08,23,04,22,14.80
2018,08,23,04,23,14.80
2018,08,23,04,24,14.80
2018,08,23,04,25,14.70
2018,08,23,04,26,14.70
2018,08,23,04,27,14.70
2018,08,23,04,28,14.70
2018,08,23,04,29,14.70
2018,08,23,04,30,14.70
2018,08,23,04,31,14.70
2018,08,23,04,32,14.70
2018,08,23,04,33,14.60
2018,08,23,04,34,14.60
2018,08,23,04,35,14.60
2018,08,23,04,36,14.50
2018,08,23,04,37,14.50
2018,08,23,04,38,14.40
2018,08,23,04,39,14.40
2018,08,23,04,40,14.40
2018,08,23,04,41,14.40
2018,08,23,04,42,14.30
2018,08,23,04,43,14.30
2018,08,23,04,44,14.30
2018,08,23,04,45,14.30
2018,08,23,04,46,14.30
2018,08,23,04,47,14.20
2018,08,23,04,48,14.20
2018,08,23,04,49,14.20
2018,08,23,04,50,14.10
2018,08,23,04,51,14.10
2018,08,23,04,52,14.10
2018,08,23,04,53,14.00
2018,08,23,04,54,14.00
2018,08,23,04,55,14.00
2018,08,23,04,56,13.90
2018,08,23,04,57,13.90
2018,08,23,04,58,13.90
2018,08,23,04,59,13.80
2018,08,23,05,00,13.80
2018,08,23,05,01,13.80
2018,08,23,05,02,13.80
2018,08,23,05,03,13.80
2018,08,23,05,04,13.70
2018,08,23,05,05,13.70
2018,08,23,05,06,13.70
2018,08,23,05,07,13.70
2018,08,23,05,08,13.70
2018,08,23,05,09,13.70
2018,08,23,05,10,13.70
2018,08,23,05,11,13.70
2018,08,23,05,12,13.70
2018,08,23,05,13,13.70
2018,08,23,05,14,13.70
2018,08,23,05,15,13.70
2018,08,23,05,16,13.70
2018,08,23,05,17,13.70
2018,08,23,05,18,13.70
2018,08,23,05,19,13.70
2018,08,23,05,20,13.70
2018,08,23,05,21,13.70
2018,08,23,05,22,13.70
2018,08,23,05,23,13.70
2018,08,23,05,24,13.70
2018,08,23,05,25,13.80
2018,08,23,05,26,13.80
2018,08,23,05,27,13.80
2018,08,23,05,28,13.80
2018,08,23,05,29,13.80
2018,08,23,05,30,13.80
2018,08,23,05,31,13.80
2018,08,23,05,32,13.80
2018,08,23,05,33,13.80
2018,08,23,05,34,13.80
2018,08,23,05,35,13.80
2018,08,23,05,36,13.80
2018,08,23,05,37,13.80
2018,08,23,05,38,13.80
2018,08,23,05,39,13.80
2018,08,23,05,40,13.80
2018,08,23,05,41,13.80
2018,08,23,05,42,13.80
2018,08,23,05,43,13.80
2018,08,23,05,44,13.90
2018,08,23,05,45,13.90
2018,08,23,05,46,13.90
2018,08,23,05,47,13.90
2018,08,23,05,48,13.80
2018,08,23,05,49,13.80
2018,08,23,05,50,13.80
2018,08,23,05,51,13.80
2018,08,23,05,52,13.80
2018,08,23,05,53,13.80
2018,08,23,05,54,13.80
2018,08,23,05,55,13.80
2018,08,23,05,56,13.80
2018,08,23,05,57,13.80
2018,08,23,05,58,13.80
2018,08,23,05,59,13.80
2018,08,23,06,00,13.80
2018,08,23,06,01,13.80
2018,08,23,06,02,13.80
2018,08,23,11,25,15.40
2018,08,23,11,26,15.40
2018,08,23,11,27,15.40
2018,08,23,11,28,15.50
2018,08,23,11,29,15.40
2018,08,23,11,30,15.40
2018,08,23,11,31,15.40
2018,08,23,11,32,15.40
2018,08,23,11,33,15.40
2018,08,23,11,34,15.40
2018,08,23,11,35,15.40
2018,08,23,11,36,15.40
2018,08,23,11,37,15.30
2018,08,23,11,38,15.30
2018,08,23,11,39,15.30
2018,08,23,11,40,15.30
2018,08,23,11,41,15.30
2018,08,23,11,42,15.30
2018,08,23,11,43,15.30
2018,08,23,11,44,15.30
2018,08,23,11,45,15.30
2018,08,23,11,46,15.30
2018,08,23,11,47,15.30
2018,08,23,11,48,15.30
2018,08,23,11,49,15.30
2018,08,23,11,50,15.30
2018,08,23,11,51,15.30
2018,08,23,11,52,15.30
2018,08,23,11,53,15.30
2018,08,23,11,54,15.30
2018,08,23,11,55,15.30
2018,08,23,11,56,15.40
2018,08,23,11,57,15.40
2018,08,23,11,58,15.40
2018,08,23,11,59,15.40
2018,08,23,12,00,15.40
2018,08,23,12,01,15.50
2018,08,23,12,02,15.50
2018,08,23,12,03,15.50
2018,08,23,12,04,15.60
2018,08,23,12,05,15.60
2018,08,23,12,06,15.60
2018,08,23,12,07,15.60
2018,08,23,12,08,15.60
2018,08,23,12,09,15.60
2018,08,23,12,10,15.60
2018,08,23,12,11,15.60
2018,08,23,12,12,15.70
2018,08,23,12,13,15.70
2018,08,23,12,14,15.70
2018,08,23,12,15,15.70
2018,08,23,12,16,15.70
2018,08,23,12,17,15.70
2018,08,23,12,18,15.70
2018,08,23,12,19,15.70
2018,08,23,12,20,15.70
2018,08,23,12,21,15.70
2018,08,23,12,22,15.70
2018,08,23,12,23,15.70
2018,08,23,12,24,15.70
2018,08,23,12,25,15.70
2018,08,23,12,26,15.70
2018,08,23,12,27,15.70
2018,08,23,12,28,15.70
2018,08,23,12,29,15.70
2018,08,23,12,30,15.70
2018,08,23,12,31,15.70
2018,08,23,12,32,15.70
2018,08,23,12,33,15.80
2018,08,23,12,34,15.80
2018,08,23,12,35,15.80
2018,08,23,12,36,15.80
2018,08,23,12,37,15.80
2018,08,23,12,38,15.70
2018,08,23,12,39,15.80
2018,08,23,12,40,15.80
2018,08,23,12,41,15.70
2018,08,23,12,42,15.80
2018,08,23,12,43,15.80
2018,08,23,12,44,15.80
2018,08,23,12,45,15.80
2018,08,23,12,46,15.80
2018,08,23,12,47,15.80
2018,08,23,12,48,15.90
2018,08,23,12,49,15.90
2018,08,23,12,50,15.90
2018,08,23,12,51,15.90
2018,08,23,12,52,15.90
2018,08,23,12,53,15.90
2018,08,23,12,54,15.90
2018,08,23,12,55,15.90
2018,08,23,12,56,15.90
2018,08,23,12,57,15.90
2018,08,23,12,58,15.90
2018,08,23,12,59,16.00
2018,08,23,13,00,16.00
2018,08,23,13,01,16.00
2018,08,23,13,02,16.00
2018,08,23,13,03,15.90
2018,08,23,13,04,15.90
2018,08,23,13,05,15.90
2018,08,23,13,06,15.90
2018,08,23,13,07,15.90
2018,08,23,13,08,15.80
2018,08,23,13,09,15.90
2018,08,23,13,10,15.90
2018,08,23,13,11,15.90
2018,08,23,13,12,15.90
2018,08,23,13,13,15.90
2018,08,23,13,14,15.80
2018,08,23,13,15,15.80
2018,08,23,13,16,15.80
2018,08,23,13,17,15.80
2018,08,23,13,18,15.80
2018,08,23,13,19,15.90
2018,08,23,13,20,15.90
2018,08,23,13,21,15.90
2018,08,23,13,22,15.90
2018,08,23,13,23,15.90
2018,08,23,13,24,15.90
2018,08,23,13,25,15.90
2018,08,23,13,26,15.90
2018,08,23,13,27,16.00
2018,08,23,13,28,16.00
2018,08,23,13,29,16.00
2018,08,23,13,30,16.00
2018,08,23,13,31,16.10
2018,08,23,13,32,16.10
2018,08,23,13,33,16.10
2018,08,23,13,34,16.10
2018,08,23,13,35,16.10
2018,08,23,13,36,16.10
2018,08,23,13,37,16.10
2018,08,23,13,38,16.10
2018,08,23,13,39,16.10
2018,08,23,13,40,16.10
2018,08,23,13,41,16.10
2018,08,23,13,42,16.10
2018,08,23,13,43,16.10
2018,08,23,13,44,16.20
2018,08,23,13,45,16.20
2018,08,23,13,46,16.20
2018,08,23,13,47,16.20
2018,08,23,13,48,16.20
2018,08,23,13,49,16.20
2018,08,23,13,50,16.20
2018,08,23,13,51,16.20
2018,08,23,13,52,16.20
2018,08,23,13,53,16.20
2018,08,23,13,54,16.30
2018,08,23,13,55,16.30
2018,08,23,13,56,16.30
2018,08,23,13,57,16.30
2018,08,23,13,58,16.30
2018,08,23,13,59,16.30
2018,08,23,14,00,16.20
2018,08,23,14,01,16.20
2018,08,23,14,02,16.10
2018,08,23,14,03,16.10
2018,08,23,14,04,16.10
2018,08,23,14,05,16.10
2018,08,23,14,06,16.10
2018,08,23,14,07,16.10
2018,08,23,14,08,16.10
2018,08,23,14,09,16.10
2018,08,23,14,10,16.20
2018,08,23,14,11,16.20
2018,08,23,14,12,16.20
2018,08,23,14,13,16.20
2018,08,23,14,14,16.10
2018,08,23,14,15,16.10
2018,08,23,14,16,16.10
2018,08,23,14,17,16.10
2018,08,23,14,18,16.20
2018,08,23,14,19,16.20
2018,08,23,14,20,16.20
2018,08,23,14,21,16.20
2018,08,23,14,22,16.20
2018,08,23,14,23,16.20
2018,08,23,14,24,16.20
2018,08,23,14,25,16.20
2018,08,23,14,26,16.20
2018,08,23,14,27,16.20
2018,08,23,14,28,16.30
2018,08,23,14,29,16.30
2018,08,23,14,30,16.30
2018,08,23,14,31,16.30
2018,08,23,14,32,16.30
2018,08,23,14,33,16.30
2018,08,23,14,34,16.20
2018,08,23,14,35,16.20
2018,08,23,14,36,16.20
2018,08,23,14,37,16.20
2018,08,23,14,38,16.20
2018,08,23,14,39,16.30
2018,08,23,14,40,16.30
2018,08,23,14,41,16.30
2018,08,23,14,42,16.30
2018,08,23,14,43,16.30
2018,08,23,14,44,16.30
2018,08,23,14,45,16.30
2018,08,23,14,46,16.30
2018,08,23,14,47,16.30
2018,08,23,14,48,16.30
2018,08,23,14,49,16.30
2018,08,23,14,50,16.30
2018,08,23,14,51,16.30
2018,08,23,14,52,16.30
2018,08,23,14,53,16.30
2018,08,23,14,54,16.30
2018,08,23,14,55,16.30
2018,08,23,14,56,16.30
2018,08,23,14,57,16.30
2018,08,23,14,58,16.30
2018,08,23,14,59,16.30
2018,08,23,15,00,16.30
2018,08,23,15,01,16.30
2018,08,23,15,02,16.30
2018,08,23,15,03,16.30
2018,08,23,15,04,16.30
2018,08,23,15,05,16.30
2018,08,23,15,06,16.20
2018,08,23,15,07,16.30
2018,08,23,15,08,16.30
2018,08,23,15,09,16.30
2018,08,23,15,10,16.30
2018,08,23,15,11,16.30
2018,08,23,15,12,16.30
2018,08,23,15,13,16.30
2018,08,23,15,14,16.30
2018,08,23,15,15,16.30
2018,08,23,15,16,16.30
2018,08,23,15,17,16.30
2018,08,23,15,18,16.30
2018,08,23,15,19,16.30
2018,08,23,15,20,16.40
2018,08,23,15,21,16.40
2018,08,23,15,22,16.40
2018,08,23,15,23,16.40
2018,08,23,15,24,16.40
2018,08,23,15,25,16.40
2018,08,23,15,26,16.40
2018,08,23,15,27,16.40
2018,08,23,15,28,16.40
2018,08,23,15,29,16.40
2018,08,23,15,30,16.50
2018,08,23,15,31,16.50
2018,08,23,15,32,16.60
2018,08,23,15,33,16.60
2018,08,23,15,34,16.60
2018,08,23,15,35,16.50
2018,08,23,15,36,16.50
2018,08,23,15,37,16.50
2018,08,23,15,38,16.40
2018,08,23,15,39,16.40
2018,08,23,15,40,16.40
2018,08,23,15,41,16.40
2018,08,23,15,42,16.40
2018,08,23,15,43,16.40
2018,08,23,15,44,16.40
2018,08,23,15,45,16.40
2018,08,23,15,46,16.40
2018,08,23,15,47,16.40
2018,08,23,15,48,16.40
2018,08,23,15,49,16.40
2018,08,23,15,50,16.40
2018,08,23,15,51,16.40
2018,08,23,15,52,16.40
2018,08,23,15,53,16.40
2018,08,23,15,54,16.50
2018,08,23,15,55,16.50
2018,08,23,15,56,16.50
2018,08,23,15,57,16.40
2018,08,23,15,58,16.50
2018,08,23,15,59,16.50
2018,08,23,16,00,16.50
2018,08,23,16,01,16.50
2018,08,23,16,02,16.50
2018,08,23,16,03,16.50
2018,08,23,16,04,16.60
2018,08,23,16,05,16.60
2018,08,23,16,06,16.60
2018,08,23,16,07,16.60
2018,08,23,16,08,16.50
2018,08,23,16,09,16.50
2018,08,23,16,10,16.50
2018,08,23,16,11,16.50
2018,08,23,16,12,16.50
2018,08,23,16,13,16.50
2018,08,23,16,14,16.50
2018,08,23,16,15,16.50
2018,08,23,16,16,16.40
2018,08,23,16,17,16.40
2018,08,23,16,18,16.40
2018,08,23,16,19,16.40
2018,08,23,16,20,16.40
2018,08,23,16,21,16.40
2018,08,23,16,22,16.40
2018,08,23,16,23,16.40
2018,08,23,16,24,16.40
2018,08,23,16,25,16.40
2018,08,23,16,26,16.40
2018,08,23,16,27,16.40
2018,08,23,16,28,16.40
2018,08,23,16,29,16.40
2018,08,23,16,30,16.40
2018,08,23,16,31,16.40
2018,08,23,16,32,16.40
2018,08,23,16,33,16.40
2018,08,23,16,34,16.40
2018,08,23,16,35,16.40
2018,08,23,16,36,16.40
2018,08,23,16,37,16.40
2018,08,23,16,38,16.40
2018,08,23,16,39,16.40
2018,08,23,16,40,16.40
2018,08,23,16,41,16.40
2018,08,23,16,42,16.40
2018,08,23,16,43,16.30
2018,08,23,16,44,16.30
2018,08,23,16,45,16.30
2018,08,23,16,46,16.30
2018,08,23,16,47,16.30
2018,08,23,16,48,16.30
2018,08,23,16,49,16.20
2018,08,23,16,50,16.20
2018,08,23,16,51,16.20
2018,08,23,16,52,16.30
2018,08,23,16,53,16.30
2018,08,23,16,54,16.30
2018,08,23,16,55,16.30
2018,08,23,16,56,16.30
2018,08,23,16,57,16.30
2018,08,23,16,58,16.20
2018,08,23,16,59,16.20
2018,08,23,17,00,16.20
2018,08,23,17,01,16.20
2018,08,23,17,02,16.20
2018,08,23,17,03,16.30
2018,08,23,17,04,16.30
2018,08,23,17,05,16.30
2018,08,23,17,06,16.30
2018,08,23,17,07,16.30
2018,08,23,17,08,16.30
2018,08,23,17,09,16.30
2018,08,23,17,10,16.30
2018,08,23,17,11,16.30
2018,08,23,17,12,16.30
2018,08,23,17,13,16.40
2018,08,23,17,14,16.40
2018,08,23,17,15,16.40
2018,08,23,17,16,16.40
2018,08,23,17,17,16.40
2018,08,23,17,18,16.40
2018,08,23,17,19,16.40
2018,08,23,17,20,16.40
2018,08,23,17,21,16.40
2018,08,23,17,22,16.40
2018,08,23,17,23,16.40
2018,08,23,17,24,16.50
2018,08,23,17,25,16.50
2018,08,23,17,26,16.50
2018,08,23,17,27,16.50
2018,08,23,17,28,16.50
2018,08,23,17,29,16.50
2018,08,23,17,30,16.50
2018,08,23,17,31,16.50
2018,08,23,17,32,16.50
2018,08,23,17,33,16.50
2018,08,23,17,34,16.60
2018,08,23,17,35,16.60
2018,08,23,17,36,16.60
2018,08,23,17,37,16.60
2018,08,23,17,38,16.70
2018,08,23,17,39,16.70
2018,08,23,17,40,16.70
2018,08,23,17,41,16.80
2018,08,23,17,42,16.80
2018,08,23,17,43,16.80
2018,08,23,17,44,16.80
2018,08,23,17,45,16.80
2018,08,23,17,46,16.90
2018,08,23,17,47,16.90
2018,08,23,17,48,16.90
2018,08,23,17,49,16.90
2018,08,23,17,50,16.90
2018,08,23,17,51,16.90
2018,08,23,17,52,16.90
2018,08,23,17,53,16.90
2018,08,23,17,54,16.90
2018,08,23,17,55,16.90
2018,08,23,17,56,16.90
2018,08,23,17,57,16.90
2018,08,23,17,58,16.90
2018,08,23,17,59,16.90
2018,08,23,18,00,16.90
2018,08,23,18,01,16.80
2018,08,23,18,02,16.80
2018,08,23,18,03,16.80
2018,08,23,18,04,16.80
2018,08,23,18,05,16.80
2018,08,23,18,06,16.80
2018,08,23,18,07,16.80
2018,08,23,18,08,16.80
2018,08,23,18,09,16.80
2018,08,23,18,10,16.70
2018,08,23,18,11,16.70
2018,08,23,18,12,16.70
2018,08,23,18,13,16.70
2018,08,23,18,14,16.70
2018,08,23,18,15,16.70
2018,08,23,18,16,16.70
2018,08,23,18,17,16.70
2018,08,23,18,18,16.70
2018,08,23,18,19,16.70
2018,08,23,18,20,16.80
2018,08,23,18,21,16.80
2018,08,23,18,22,16.80
2018,08,23,18,23,16.90
2018,08,23,18,24,16.90
2018,08,23,18,25,16.90
2018,08,23,18,26,16.90
2018,08,23,18,27,16.90
2018,08,23,18,28,16.90
2018,08,23,18,29,16.90
2018,08,23,18,30,16.90
2018,08,23,18,31,16.90
2018,08,23,18,32,16.90
2018,08,23,18,33,17.00
2018,08,23,18,34,17.00
2018,08,23,18,35,17.10
2018,08,23,18,36,17.10
2018,08,23,18,37,17.10
2018,08,23,18,38,17.10
2018,08,23,18,39,17.10
2018,08,23,18,40,17.10
2018,08,23,18,41,17.10
2018,08,23,18,42,17.00
2018,08,23,18,43,17.00
2018,08,23,18,44,16.90
2018,08,23,18,45,16.90
2018,08,23,18,46,16.80
2018,08,23,18,47,16.80
2018,08,23,18,48,16.70
2018,08,23,18,49,16.70
2018,08,23,18,50,16.70
2018,08,23,18,51,16.70
2018,08,23,18,52,16.70
2018,08,23,18,53,16.70
2018,08,23,18,54,16.70
2018,08,23,18,55,16.70
2018,08,23,18,56,16.70
2018,08,23,18,57,16.70
2018,08,23,18,58,16.60
2018,08,23,18,59,16.60
2018,08,23,19,00,16.60
2018,08,23,19,01,16.50
2018,08,23,19,02,16.50
2018,08,23,19,03,16.40
2018,08,23,19,04,16.40
2018,08,23,19,05,16.30
2018,08,23,19,06,16.30
2018,08,23,19,07,16.30
2018,08,23,19,08,16.30
2018,08,23,19,09,16.20
2018,08,23,19,10,16.20
2018,08,23,19,11,16.20
2018,08,23,19,12,16.20
2018,08,23,19,13,16.10
2018,08,23,19,14,16.10
2018,08,23,19,15,16.10
2018,08,23,19,16,16.10
2018,08,23,19,17,16.00
2018,08,23,19,18,16.00
2018,08,23,19,19,15.90
2018,08,23,19,20,15.90
2018,08,23,19,21,15.80
2018,08,23,19,22,15.80
2018,08,23,19,23,15.70
2018,08,23,19,24,15.70
2018,08,23,19,25,15.60
2018,08,23,19,26,15.50
2018,08,23,19,27,15.40
2018,08,23,19,28,15.30
2018,08,23,19,29,15.30
2018,08,23,19,30,15.20
2018,08,23,19,31,15.10
2018,08,23,19,32,15.00
2018,08,23,19,33,15.00
2018,08,23,19,34,14.90
2018,08,23,19,35,14.90
2018,08,23,19,36,14.80
2018,08,23,19,37,14.80
2018,08,23,19,38,14.80
2018,08,23,19,39,14.70
2018,08,23,19,40,14.70
2018,08,23,19,41,14.70
2018,08,23,19,42,14.60
2018,08,23,19,43,14.60
2018,08,23,19,44,14.50
2018,08,23,19,45,14.50
2018,08,23,19,46,14.50
2018,08,23,19,47,14.50
2018,08,23,19,48,14.50
2018,08,23,19,49,14.50
2018,08,23,19,50,14.50
2018,08,23,19,51,14.50
2018,08,23,19,52,14.50
2018,08,23,19,53,14.50
2018,08,23,19,54,14.50
2018,08,23,19,55,14.60
2018,08,23,19,56,14.60
2018,08,23,19,57,14.60
2018,08,23,19,58,14.60
2018,08,23,19,59,14.70
2018,08,23,20,00,14.70
2018,08,23,20,01,14.70
2018,08,23,20,02,14.70
2018,08,23,20,03,14.80
2018,08,23,20,04,14.80
2018,08,23,20,05,14.80
2018,08,23,20,06,14.80
2018,08,23,20,07,14.90
2018,08,23,20,08,14.90
2018,08,23,20,09,14.90
2018,08,23,20,10,14.90
2018,08,23,20,11,14.90
2018,08,23,20,12,14.90
2018,08,23,20,13,15.00
2018,08,23,20,14,15.00
2018,08,23,20,15,15.00
2018,08,23,20,16,15.00
2018,08,23,20,17,15.00
2018,08,23,20,18,15.00
2018,08,23,20,19,15.00
2018,08,23,20,20,15.00
2018,08,23,20,21,15.00
2018,08,23,20,22,15.00
2018,08,23,20,23,15.00
2018,08,23,20,24,15.00
2018,08,23,20,25,15.00
2018,08,23,20,26,15.00
2018,08,23,20,27,15.00
2018,08,23,20,28,15.00
2018,08,23,20,29,15.00
2018,08,23,20,30,15.00
2018,08,23,20,31,15.00
2018,08,23,20,32,15.00
2018,08,23,20,33,15.10
2018,08,23,20,34,15.10
2018,08,23,20,35,15.10
2018,08,23,20,36,15.00
2018,08,23,20,37,15.00
2018,08,23,20,38,15.00
2018,08,23,20,39,15.00
2018,08,23,20,40,15.00
2018,08,23,20,41,15.00
2018,08,23,20,42,15.00
2018,08,23,20,43,15.00
2018,08,23,20,44,15.00
2018,08,23,20,45,15.00
2018,08,23,20,46,15.00
2018,08,23,20,47,15.00
2018,08,23,20,48,15.00
2018,08,23,20,49,15.00
2018,08,23,20,50,15.00
2018,08,23,20,51,15.00
2018,08,23,20,52,15.00
2018,08,23,20,53,15.00
2018,08,23,20,54,15.00
2018,08,23,20,55,15.00
2018,08,23,20,56,14.90
2018,08,23,20,57,14.90
2018,08,23,20,58,14.90
2018,08,23,20,59,14.90
2018,08,23,21,00,14.90
2018,08,23,21,01,14.90
2018,08,23,21,02,14.90
2018,08,23,21,03,14.80
2018,08,23,21,04,14.80
2018,08,23,21,05,14.80
2018,08,23,21,06,14.80
2018,08,23,21,07,14.70
2018,08,23,21,08,14.70
2018,08,23,21,09,14.70
2018,08,23,21,10,14.70
2018,08,23,21,11,14.60
2018,08,23,21,12,14.60
2018,08,23,21,13,14.60
2018,08,23,21,14,14.60
2018,08,23,21,15,14.60
2018,08,23,21,16,14.60
2018,08,23,21,17,14.60
2018,08,23,21,18,14.60
2018,08,23,21,19,14.50
2018,08,23,21,20,14.50
2018,08,23,21,21,14.50
2018,08,23,21,22,14.50
2018,08,23,21,23,14.50
2018,08,23,21,24,14.40
2018,08,23,21,25,14.40
2018,08,23,21,26,14.40
2018,08,23,21,27,14.40
2018,08,23,21,28,14.40
2018,08,23,21,29,14.40
2018,08,23,21,30,14.40
2018,08,23,21,31,14.40
2018,08,23,21,32,14.40
2018,08,23,21,33,14.40
2018,08,23,21,34,14.40
2018,08,23,21,35,14.40
2018,08,23,21,36,14.40
2018,08,23,21,37,14.40
2018,08,23,21,38,14.30
2018,08,23,21,39,14.30
2018,08,23,21,40,14.30
2018,08,23,21,41,14.30
2018,08,23,21,42,14.30
2018,08,23,21,43,14.30
2018,08,23,21,44,14.30
2018,08,23,21,45,14.30
2018,08,23,21,46,14.30
2018,08,23,21,47,14.30
2018,08,23,21,48,14.30
2018,08,23,21,49,14.30
2018,08,23,21,50,14.30
2018,08,23,21,51,14.30
2018,08,23,21,52,14.30
2018,08,23,21,53,14.30
2018,08,23,21,54,14.30
2018,08,23,21,55,14.30
2018,08,23,21,56,14.30
2018,08,23,21,57,14.30
2018,08,23,21,58,14.30
2018,08,23,21,59,14.30
2018,08,23,22,00,14.30
2018,08,23,22,01,14.30
2018,08,23,22,02,14.30
2018,08,23,22,03,14.30
2018,08,23,22,04,14.30
2018,08,23,22,05,14.30
2018,08,23,22,06,14.30
2018,08,23,22,07,14.30
2018,08,23,22,08,14.30
2018,08,23,22,09,14.30
2018,08,23,22,10,14.30
2018,08,23,22,11,14.30
2018,08,23,22,12,14.30
2018,08,23,22,13,14.30
2018,08,23,22,14,14.30
2018,08,23,22,15,14.30
2018,08,23,22,16,14.30
2018,08,23,22,17,14.30
2018,08,23,22,18,14.30
2018,08,23,22,19,14.30
2018,08,23,22,20,14.30
2018,08,23,22,21,14.30
2018,08,23,22,22,14.30
2018,08,23,22,23,14.30
2018,08,23,22,24,14.30
2018,08,23,22,25,14.30
2018,08,23,22,26,14.30
2018,08,23,22,27,14.30
2018,08,23,22,28,14.30
2018,08,23,22,29,14.20
2018,08,23,22,30,14.20
2018,08,23,22,31,14.20
2018,08,23,22,32,14.20
2018,08,23,22,33,14.20
2018,08,23,22,34,14.20
2018,08,23,22,35,14.20
2018,08,23,22,36,14.20
2018,08,23,22,37,14.20
2018,08,23,22,38,14.20
2018,08,23,22,39,14.20
2018,08,23,22,40,14.20
2018,08,23,22,41,14.20